Hourly Data Report for June 13, 2012

All times are specified in Local Standard Time (LST). Add 1 hour to adjust for Daylight Saving Time where and when it is observed.

MONCTON INTL A
NEW BRUNSWICK

46°06'44.000" N
64°40'43.000" W
70.70 m
8103201
71705
YQM

Download Data

Hourly Data (June 2012)
Hourly Data Report for June 13, 2012
Temp Definition
°C
Dew Point Temp Definition
°C
Rel Hum Definition
%
Wind Dir Definition
10's deg

Wind Spd Definition
km/h
Visibility Definition
km
Stn Press Definition
kPa
Hmdx Definition


Wind Chill Definition


Weather Definition


TIME
00:00 12.5 5.5 62 16 15 10.0 100.87     LegendNANA
01:00 11.3 6.3 71 17 13 10.0 100.86     LegendNANA
02:00 11.3 7.8 79 17 13 10.0 100.82     Clear
03:00 10.1 7.7 85 17 13 10.0 100.79     LegendNANA
04:00 10.2 8.3 88 17 12 10.0 100.81     LegendNANA
05:00 9.7 8.2 90 18 12 10.0 100.82     Mainly Clear
06:00 12.7 8.2 74 19 12 10.0 100.83     LegendNANA
07:00 14.8 8.6 66 18 12 10.0 100.84     LegendNANA
08:00 16.6 9.1 61 17 17 10.0 100.84     Mainly Clear
09:00 18.7 9.6 55 14 13 10.0 100.79     LegendNANA
10:00 20.6 10.8 53 17 13 10.0 100.77     LegendNANA
11:00 21.7 11.0 50 15 13 10.0 100.78     Mainly Clear
12:00 23.5 9.3 40 19 9 10.0 100.74     LegendNANA
13:00 23.5 10.0 42 17 15 10.0 100.73 25   LegendNANA
14:00 24.7 10.8 41 18 15 10.0 100.72 26   Mostly Cloudy
15:00 25.0 11.0 41 22 17 10.0 100.71 27   LegendNANA
16:00 23.8 10.7 43 24 23 10.0 100.73 25   LegendNANA
17:00 24.4 10.1 40 23 19 10.0 100.74 26   Mostly Cloudy
18:00 22.6 8.9 41 24 27 10.0 100.77     LegendNANA
19:00 19.9 10.7 55 24 17 10.0 100.83     LegendNANA
20:00 18.4 10.6 60 23 18 10.0 100.85     Mostly Cloudy
21:00 17.3 11.6 69 22 12 10.0 100.90     LegendNANA
22:00 17.3 13.1 76 23 13 10.0 100.91     LegendNANA
23:00 16.8 13.2 79 22 13 10.0 100.90     Mostly Cloudy

Notes on Data Quality.

Legend

  • E = Estimated
  • M = Missing
  • NA = Not Available
Date modified: